Собоба Спрингс

США     33°49′30″N   116°56′38″W
темп.,
°C
ветер,
м/с
пор.,
м/с
влажн.,
%
обл.,
%
осадки,
мм/ч
давл.,
гПа
погр.,
м
19 апреля, пн
пн1923:00+14всв11170 0.0 101711
02:00+12всв11130 0.0 101611
05:00+12всв11170 0.0 101611
08:00+21в11100 0.0 101786
11:00+26зюз2170 0.0 10161302
14:00+29зсз3460 0.0 10132781
17:00+28з76110 0.0 10122163
20:00+17ю12290 0.0 101411
20 апреля, вт
вт2023:00+14ююв12330 0.0 101411
02:00+13ююв12320 0.0 101311
05:00+11ю11290 0.0 101211
08:00+18ю11200 0.0 1013143
11:00+23юз44180 0.0 1012942
14:00+25юз77190 0.0 10101290
17:00+21ююз66290 0.0 1010797
20:00+12юз33752 0.0 101139
21 апреля, ср
ср2123:00+9ююз229737 0.0 101331
02:00+9ююз348795 0.0 1012441
05:00+9ю248099 0.0 1012625
08:00+10ююз357297 0.0 1013921
11:00+11ююз456597 0.1 10131033
14:00+13ююз556175 0.0 10121020
17:00+14ююз656283 0.1 10111021
20:00+11ююз347591 0.0 1012518
22 апреля, чт
чт2223:00+10ююз237992 0.0 1013479
02:00+10ююз138098 0.0 1013378
05:00+9ююз118190 0.0 101254
08:00+10ю127690 0.0 1014377
11:00+14зюз225824 0.0 10131034
14:00+20зюз43409 0.0 10111518
17:00+16ююз545762 0.3 1011885
20:00+12ююз227954 0.5 1013190
23 апреля, пт
пт2323:00+10ю228764 0.5 1014296
02:00+9ююз129280 0.0 1015301
05:00+9ююз119092 0.0 1015308
08:00+10з118087 0.0 1016529
11:00+16зюз22560 0.0 1015729
14:00+22ююз43365 0.0 10131308
17:00+19ююз54495 0.0 1013802
20:00+12ююз22770 0.0 101521